Flag for U.S.A. Weather past 2 weeks in Detroit, Michigan, U.S.A.

Now
64 °F

Fog.


Feels Like: 64 °F
Forecast: 60 / 72 °F
Wind: 3 mph from North

Location: Detroit City Airport

Current Time: Jul 1, 2015 at 1:27:37 AM

Latest Report: Jul 1, 2015 at 1:01 AM


Visibility: 2 mi

Pressure: 29.79 "Hg

Humidity: 97%

Dew point: 63 °F

Location of DetroitLocation

Historic Weather in Detroit — Graph

°F

Detroit temperature yesterday

Maximum temperature yesterday: 75 °F (at 5:53 PM)
Minimum temperature yesterday: 63 °F (at 5:53 AM)
Average temperature yesterday: 67 °F

Past Weeks' High & Low Weather Summary

 TemperatureHumidityPressure
High84 °F (Jun 21, 5:53 PM)94% (Jun 30, 11:53 PM)30.15 "Hg (Jun 30, 11:53 PM)
Low53 °F (Jun 20, 5:53 AM)31% (Jun 24, 1:53 PM)29.69 "Hg (Jun 22, 11:53 PM)
Average69 °F71%29.93 "Hg
* Reported Jun 16 12:04 AM — Jul 1 12:03 AM, Detroit, Weather by CustomWeather, © 2015

Note: Actual official high and low records may vary slightly from our data, if they occured in-between our weather recording intervals... More about our weather records

Advertising

Detroit weather history for previous 24 hours

 ConditionsComfort  
Time TempWeatherWind HumidityBarometerVisibility
12:03 AM
Wed, Jul 1
65 °FFog.No wind94%29.79 "Hg4 mi
11:53 PM
Tue, Jun 30
65 °FLight rain. Fog.No wind94%29.78 "Hg5 mi
10:53 PM66 °FLight rain. Fog.No wind93%29.78 "Hg5 mi
9:53 PM67 °FScattered clouds.6 mph87%29.76 "Hg7 mi
8:53 PM67 °FMostly cloudy.7 mph87%29.75 "Hg7 mi
7:53 PM69 °FThundershowers. Mostly cloudy.No wind76%29.75 "Hg7 mi
6:53 PM69 °FOvercast.9 mph76%29.73 "Hg10 mi
5:53 PM75 °FBroken clouds.8 mph58%29.72 "Hg10 mi
4:53 PM73 °FBroken clouds.5 mph69%29.73 "Hg10 mi
3:53 PM72 °FBroken clouds.6 mph71%29.74 "Hg10 mi
2:53 PM73 °FPartly sunny.5 mph64%29.75 "Hg10 mi
1:53 PM71 °FBroken clouds.3 mph66%29.77 "Hg10 mi
12:53 PM70 °FOvercast.5 mph71%29.78 "Hg10 mi
11:53 AM69 °FMostly cloudy.6 mph73%29.79 "Hg10 mi
10:53 AM67 °FOvercast.No wind76%29.80 "Hg10 mi
9:53 AM66 °FOvercast.No wind78%29.81 "Hg10 mi
9:01 AM64 °FMostly cloudy.No wind84%29.82 "Hg10 mi
7:53 AM63 °FMostly cloudy.6 mph87%29.81 "Hg10 mi
7:00 AM63 °FMostly cloudy.3 mph87%29.81 "Hg10 mi
5:53 AM63 °FOvercast.No wind87%29.78 "Hg10 mi
4:53 AM64 °FMostly cloudy.6 mph87%29.79 "Hg10 mi
3:53 AM64 °FOvercast.6 mph84%29.80 "Hg10 mi
2:53 AM64 °FOvercast.5 mph84%29.81 "Hg8 mi
1:53 AM65 °FLight rain. Mostly cloudy.8 mph81%29.81 "Hg7 mi
Weather by CustomWeather, © 2015

See weather overviewHow to use our weather pages